New Castle, PA

2:49 PM EST on November 21, 2017 (GMT -0500)
New Castle Municipal

Weather History for KUCP - January, 2014

Change the Weather History Date:

Wednesday, January 29, 2014

  Actual Average Record
Temperature  
Mean Temperature 3 °F -  
Max Temperature 14 °F 34 °F 64 °F (1975)
Min Temperature -8 °F 17 °F -23 °F (1963)
Degree Days  
Heating Degree Days 62    
Moisture  
Dew Point -9 °F    
Average Humidity 56    
Maximum Humidity 71    
Minimum Humidity 43    
Precipitation  
Precipitation 0.00 in - - ()
Sea Level Pressure  
Sea Level Pressure 30.35 in    
Wind  
Wind Speed 5 mph (SSW)    
Max Wind Speed 16 mph    
Max Gust Speed 23 mph    
Visibility 10 miles    
Events      
Averages and records for this station are not official NWS values.
T = Trace of Precipitation, MM = Missing Value Source: NWS Daily Summary

Daily Weather History Graph

Daily Weather History Graph

Search for Another Location

Airport or City:

Trip Planner

Search our weather history database for the weather conditions in past years. The results will help you decide how hot, cold, wet, or windy it might be!

Date:

Astronomy

Jan. 29, 2014 Rise Set
Actual Time 7:35 AM EST 5:34 PM EST
Civil Twilight 7:05 AM EST 6:04 PM EST
Nautical Twilight 6:32 AM EST 6:37 PM EST
Astronomical Twilight 6:00 AM EST 7:09 PM EST
Moon 6:10 AM EST (1/29) 4:32 PM EST (1/29)
Length of Visible Light 10h 58m
Length of Day
9h 59m
Waning Crescent, 2% of the Moon is Illuminated
Jan 29
Waning Crescent
Jan 30
New
Feb 6
First Quarter
Feb 14
Full
Feb 22
Last Quarter

Hourly Weather History & Observations

Time (EST) Temp. Windchill Dew Point Humidity Pressure Visibility Wind Dir Wind Speed Gust Speed Precip Events Conditions
12:56 AM -4.9 °F - -15.0 °F 62% 30.37 in 10.0 mi Calm Calm - N/A   Clear
1:56 AM -6.0 °F - -15.9 °F 62% 30.37 in 10.0 mi Calm Calm - N/A   Clear
2:56 AM -6.9 °F - -17.0 °F 62% 30.36 in 10.0 mi Calm Calm - N/A   Clear
3:56 AM -8.0 °F -21.0 °F -17.0 °F 65% 30.34 in 10.0 mi South 5.8 mph - N/A   Clear
4:56 AM -6.9 °F -15.7 °F -15.9 °F 65% 30.33 in 10.0 mi SSW 3.5 mph - N/A   Clear
5:56 AM -6.9 °F - -15.9 °F 65% 30.34 in 10.0 mi Calm Calm - N/A   Clear
6:56 AM -8.0 °F -21.0 °F -15.0 °F 71% 30.34 in 10.0 mi South 5.8 mph - N/A   Clear
7:56 AM -8.0 °F -22.5 °F -15.0 °F 71% 30.33 in 10.0 mi South 6.9 mph - N/A   Clear
8:56 AM -2.9 °F -13.3 °F -11.9 °F 65% 30.35 in 10.0 mi SSW 4.6 mph - N/A   Clear
9:56 AM 2.1 °F -10.4 °F -9.9 °F 57% 30.36 in 10.0 mi Variable 6.9 mph - N/A   Clear
10:56 AM 7.2 °F -8.1 °F -6.9 °F 53% 30.36 in 10.0 mi SW 11.5 mph - N/A   Clear
11:56 AM 9.1 °F -6.4 °F -6.9 °F 48% 30.35 in 10.0 mi SSW 12.7 mph 18.4 mph N/A   Clear
12:56 PM 11.1 °F -3.9 °F -4.9 °F 49% 30.31 in 10.0 mi SSW 12.7 mph 21.9 mph N/A   Clear
1:56 PM 13.1 °F -3.1 °F -4.9 °F 45% 30.30 in 10.0 mi WSW 16.1 mph 23.0 mph N/A   Clear
2:56 PM 14.0 °F -0.2 °F -4.9 °F 43% 30.31 in 10.0 mi SW 12.7 mph 19.6 mph N/A   Clear
3:56 PM 14.0 °F -0.2 °F -4.0 °F 45% 30.31 in 10.0 mi SW 12.7 mph 18.4 mph N/A   Clear
4:56 PM 14.0 °F 0.5 °F -4.9 °F 43% 30.33 in 10.0 mi SW 11.5 mph - N/A   Clear
5:56 PM 12.0 °F 2.7 °F -4.9 °F 47% 30.35 in 10.0 mi Variable 5.8 mph - N/A   Clear
6:56 PM 10.0 °F 0.4 °F -4.9 °F 51% 30.38 in 10.0 mi SSW 5.8 mph - N/A   Clear
7:56 PM 9.1 °F -0.7 °F -4.9 °F 53% 30.40 in 10.0 mi SSW 5.8 mph - N/A   Clear
8:56 PM 9.1 °F -0.7 °F -4.0 °F 55% 30.39 in 10.0 mi SSW 5.8 mph - N/A   Clear
9:56 PM 8.1 °F -0.5 °F -4.0 °F 58% 30.40 in 10.0 mi SSW 4.6 mph - N/A   Clear
10:56 PM 7.2 °F 0.3 °F -4.0 °F 60% 30.40 in 10.0 mi SSW 3.5 mph - N/A   Clear
11:56 PM 8.1 °F -0.5 °F -4.0 °F 58% 30.40 in 10.0 mi South 4.6 mph - N/A   Clear